Location: Unspecified
(0.0000°N, 0.0000°E)
Time: 07:06:05
(UTC+00:00)

Tiros 1 despin weight - Pass Details

Date: 11 October 2023
Orbit: 583 x 627 km, 48.2° (Epoch: 05 December)

Event Time Altitude Azimuth Distance (km) Brightness Sun altitude
Rises 01:29:54 0° 285° (WNW) 2,791 - -63.4°
Reaches altitude 10° 01:33:21 10° 257° (WSW) 1,891 - -62.6°
Maximum altitude 01:35:18 13° 230° (SW) 1,715 - -62.1°
Drops below altitude 10° 01:37:16 10° 202° (SSW) 1,894 - -61.6°
Sets 01:40:44 0° 174° (S) 2,799 - -60.8°
